User: anonymous   Login
Location: Melbourne
(37.8170°S, 144.9670°E)
Time: 10:49:20
(UTC+10:00)
Language:

CZ-3 R/B - Orbit

View from above orbital plane
View from above orbital plane
View from above satellite
View from above satellite

Ground track
Ground track

The orbit data is extracted from the following two-line orbital elements,

1 29517U 06048B   17202.92697219 +.00008374 +00000-0 +39145-3 0  9996
2 29517 028.4362 107.6545 4361052 330.5426 010.7099 06.81089031169933
Epoch (UTC): 21 July 2017 22:14:50
Eccentricity: 0.4361052
inclination: 28.4362°
perigee height: 251 km
apogee height: 10505 km
right ascension of ascending node: 107.6545°
argument of perigee: 330.5426°
revolutions per day: 6.81089031
mean anomaly at epoch: 10.7099°
orbit number at epoch: 16993

The dashed part of the orbit path shows where the satellite is in the earth's shadow,  

DLR